[[{"header":{"parameterUnit":"m.s-1","parameterCategory":1,"la1":30.2991,"la2":30.254,"lo1":-89.0895,"lo2":-89.0444,"dy":0.0017,"dx":0.0017,"nx":28,"ny":28,"refTime":"2025-01-22T09:00:00:Z","depth":0,"parameterNumber":2,"parameterNumberName":"U-component_of_WINDS"},"data":[0,0,0,0,0,0,0,0,0,0,0,0,0,0,0,0,0,0,0,0,0,0,0,0,0,0,0,0,0,0,0,0,0,0,0,0,0,0,0,0,0,0,0,0,0,0,0,0,0,0,0,0,0,0,0,0,0,0,1.0561,1.056,0,1.0477,1.0476,1.0475,1.0418,1.0418,1.0418,1.0417,1.0325,1.0323,1.0321,0,0,0,0,0,0,0,0,0,0,0,0,0,1.0667,1.0666,1.0561,1.056,1.0559,1.0477,1.0476,1.0474,1.0418,1.0418,1.0417,1.0417,1.0326,1.0324,1.0321,0,0,0,0,0,0,0,0,0,0,0,0,0,1.0606,1.0665,1.0561,1.0521,1.0517,1.0477,1.0476,1.0474,1.0418,1.0418,1.0417,1.0417,1.0327,1.0324,1.0321,1.0313,0,0,1.0311,1.031,0,0,0,0,0,0,0,0,1.0609,1.0602,1.0528,1.0524,1.0519,1.0458,1.0479,1.042,1.0419,1.0456,1.0417,1.0417,1.0369,1.0363,1.0348,1.0308,1.0304,1.0311,1.0309,1.0308,1.0307,0,0,0,0,0,0,0,1.0614,1.0605,1.0527,1.0527,1.0521,1.0505,1.0496,1.0468,1.0416,1.0452,1.0448,1.0439,1.0367,1.0351,1.0345,1.0303,1.0311,1.0308,1.0306,1.0305,1.0251,1.0251,0,0,0,0,0,0,1.0625,1.0609,1.053,1.0525,1.0564,1.0504,1.0493,1.0478,1.0417,1.0407,1.044,1.0437,1.0357,1.0349,1.0342,1.0328,1.0308,1.0305,1.0303,1.025,1.0251,1.0251,0,0,0,0,0,0,1.0628,1.0619,1.0533,1.0566,1.0554,1.0503,1.0485,1.0476,1.0461,1.0407,1.0397,1.0434,1.0356,1.0346,1.032,1.0324,1.0303,1.03,1.025,1.025,1.0251,1.03,0,0,0,0,0,0,1.0631,1.062,1.0618,1.0566,1.0552,1.0515,1.0486,1.0475,1.0456,1.0452,1.0399,1.039,1.0355,1.0325,1.0317,1.0319,1.0298,1.0249,1.025,1.0251,1.0298,1.0302,1.0306,0,0,0,0,0,1.0635,1.0634,1.0618,1.0609,1.0549,1.0516,1.0507,1.0469,1.0457,1.0453,1.0418,1.0391,1.0325,1.0323,1.0314,1.0314,1.0249,1.025,1.0251,1.0296,1.0301,1.0306,0,0,0,0,0,0,1.0685,1.0626,1.0608,1.0591,1.0559,1.0506,1.0501,1.0476,1.0446,1.0443,1.0395,1.0383,1.0362,1.0335,1.0335,1.0303,1.0283,1.0282,1.0321,1.0325,1.033,1.0336,1.0295,0,0,0,0,0,1.0694,1.0674,1.0623,1.0613,1.0598,1.0552,1.0536,1.051,1.0474,1.046,1.0423,1.0388,1.0359,1.0341,1.0311,1.0293,1.028,1.0289,1.0293,1.0297,1.0296,1.0284,1.0287,1.0254,1.0254,1.0254,0,0,1.0713,1.0678,1.0668,1.0622,1.0594,1.0572,1.0541,1.052,1.0502,1.0455,1.0429,1.0401,1.0358,1.0337,1.0325,1.0314,1.0302,1.0298,1.0301,1.0299,1.0285,1.0288,1.0291,1.0255,1.0255,1.0255,0,0,1.0736,1.0708,1.0696,1.0669,1.0628,1.0598,1.0595,1.0546,1.0526,1.0499,1.0463,1.0441,1.0392,1.0363,1.0342,1.0353,1.0326,1.0345,1.0366,1.0354,1.0357,1.0359,1.0362,1.0364,1.0345,1.0345,1.0345,0,1.0763,1.0731,1.0692,1.0673,1.0653,1.0612,1.0598,1.0573,1.0523,1.051,1.0498,1.0436,1.0404,1.0375,1.0377,1.0362,1.0356,1.035,1.036,1.0362,1.0363,1.0365,1.0367,1.0347,1.0347,1.0347,1.0346,0,1.0767,1.0745,1.074,1.0695,1.0675,1.0658,1.0615,1.0598,1.0573,1.0543,1.0516,1.0476,1.0438,1.0428,1.0403,1.0395,1.0389,1.037,1.0349,1.0369,1.037,1.0371,1.0351,1.035,1.0349,1.0348,0,0,1.0819,1.0753,1.0752,1.0731,1.0682,1.0664,1.0644,1.0608,1.0595,1.0561,1.0543,1.0503,1.0484,1.046,1.0431,1.0421,1.0431,1.0402,1.0401,1.0409,1.0418,1.0433,1.0435,1.0414,1.0414,1.0414,1.0422,0,1.0834,1.08,1.0764,1.0742,1.072,1.068,1.0663,1.063,1.0601,1.0577,1.0544,1.0517,1.0495,1.048,1.0468,1.0433,1.0433,1.0432,1.0394,1.0393,1.0406,1.0436,1.0452,1.0461,1.0422,1.0422,1.0422,0,1.0847,1.0818,1.0794,1.0747,1.0737,1.0723,1.0686,1.0664,1.0625,1.0605,1.0578,1.0547,1.0523,1.0506,1.047,1.0471,1.0453,1.0433,1.0432,1.0427,1.0409,1.0431,1.0463,1.0465,1.0423,1.0423,1.0423,0,1.0887,1.0842,1.0821,1.0804,1.0749,1.074,1.0716,1.0677,1.0657,1.0624,1.0611,1.0575,1.0556,1.0528,1.0487,1.0479,1.0456,1.0435,1.0437,1.0438,1.0434,1.0435,1.0464,1.0423,1.0423,1.0423,1.0423,0,1.0908,1.0894,1.0839,1.0826,1.0809,1.0767,1.0751,1.0723,1.0689,1.0668,1.063,1.0612,1.056,1.0534,1.0502,1.0477,1.0468,1.045,1.0442,1.0453,1.0456,1.0441,1.0439,1.0423,1.0423,1.0423,1.0423,0,1.095,1.0912,1.0887,1.0837,1.0824,1.0814,1.077,1.0755,1.0724,1.0699,1.069,1.0641,1.0609,1.0566,1.052,1.0498,1.0477,1.0464,1.0491,1.0486,1.049,1.049,1.051,1.051,1.0471,1.0471,1.0472,0,1.0965,1.0954,1.0903,1.0888,1.0866,1.0842,1.0822,1.0779,1.076,1.0714,1.0704,1.067,1.064,1.059,1.0549,1.0513,1.0499,1.0508,1.0493,1.0505,1.0498,1.0499,1.0498,1.0512,1.0513,1.0513,1.0514,0,1.0997,1.0978,1.0952,1.092,1.0898,1.0869,1.0839,1.0828,1.0778,1.0758,1.0726,1.0703,1.0656,1.0622,1.0581,1.0553,1.0525,1.0519,1.0517,1.0529,1.0545,1.0536,1.0501,1.0519,1.0518,1.0518,1.0518,1.0517,1.1025,1.1013,1.0976,1.0948,1.0921,1.0893,1.0877,1.0845,1.0818,1.0778,1.0754,1.0722,1.0682,1.0624,1.0598,1.0571,1.056,1.0558,1.0557,1.0557,1.0561,1.055,1.0563,1.0563,1.0563,1.0563,1.0563,0,1.1054,1.1028,1.1003,1.0963,1.094,1.0917,1.0882,1.0864,1.0838,1.0803,1.0775,1.0737,1.0704,1.066,1.0623,1.0609,1.0595,1.0601,1.0601,1.0595,1.0573,1.0578,1.0613,1.0613,1.0613,1.0613,1.0613,1.0613,1.1067,1.1046,1.1023,1.0987,1.096,1.0931,1.0913,1.0886,1.0859,1.0819,1.0792,1.0764,1.0725,1.0685,1.0652,1.064,1.0627,1.0637,1.0621,1.0601,1.0597,1.0593,1.0597,1.0635,1.0635,1.0645,1.0645,1.0645]},{"header":{"parameterUnit":"m.s-1","parameterCategory":1,"la1":30.2991,"la2":30.254,"lo1":-89.0895,"lo2":-89.0444,"dy":0.0017,"dx":0.0017,"nx":28,"ny":28,"refTime":"2025-01-22T09:00:00:Z","depth":0,"parameterNumber":3,"parameterNumberName":"V-component_of_WINDS"},"data":[0,0,0,0,0,0,0,0,0,0,0,0,0,0,0,0,0,0,0,0,0,0,0,0,0,0,0,0,0,0,0,0,0,0,0,0,0,0,0,0,0,0,0,0,0,0,0,0,0,0,0,0,0,0,0,0,0,0,-3.8096,-3.8097,0,-3.8148,-3.8148,-3.8149,-3.8109,-3.8107,-3.8105,-3.8104,-3.8155,-3.8158,-3.8161,0,0,0,0,0,0,0,0,0,0,0,0,0,-3.7959,-3.7962,-3.8096,-3.8097,-3.8097,-3.8148,-3.8148,-3.8149,-3.8109,-3.8107,-3.8105,-3.8103,-3.8154,-3.8157,-3.8161,0,0,0,0,0,0,0,0,0,0,0,0,0,-3.8015,-3.7962,-3.8096,-3.8084,-3.8083,-3.8148,-3.8148,-3.8149,-3.811,-3.8107,-3.8104,-3.8102,-3.8153,-3.8157,-3.8161,-3.824,0,0,-3.8175,-3.8177,0,0,0,0,0,0,0,0,-3.8012,-3.802,-3.8085,-3.8085,-3.8084,-3.8119,-3.8119,-3.818,-3.811,-3.8099,-3.8104,-3.8101,-3.8145,-3.815,-3.8165,-3.8243,-3.8245,-3.8175,-3.8178,-3.818,-3.8181,0,0,0,0,0,0,0,-3.8008,-3.8018,-3.8116,-3.8086,-3.8085,-3.8074,-3.8079,-3.813,-3.8136,-3.81,-3.8097,-3.8104,-3.8144,-3.8161,-3.8166,-3.8246,-3.8175,-3.8179,-3.8182,-3.8184,-3.8386,-3.8389,0,0,0,0,0,0,-3.8006,-3.8015,-3.8115,-3.8118,-3.8041,-3.8079,-3.8084,-3.8111,-3.8135,-3.8137,-3.8106,-3.8102,-3.8155,-3.8161,-3.8168,-3.8259,-3.818,-3.8184,-3.8187,-3.8384,-3.8387,-3.839,0,0,0,0,0,0,-3.8003,-3.8015,-3.8113,-3.8066,-3.8077,-3.8084,-3.8113,-3.8113,-3.813,-3.814,-3.8141,-3.8123,-3.8153,-3.8161,-3.8222,-3.826,-3.8186,-3.819,-3.838,-3.8385,-3.8388,-3.8443,0,0,0,0,0,0,-3.7999,-3.8015,-3.8046,-3.8067,-3.808,-3.8167,-3.8116,-3.8116,-3.8138,-3.8133,-3.8155,-3.8157,-3.8152,-3.8215,-3.8226,-3.8265,-3.8194,-3.8377,-3.8382,-3.8387,-3.8438,-3.8448,-3.8458,0,0,0,0,0,-3.7995,-3.806,-3.8048,-3.806,-3.8119,-3.817,-3.8177,-3.817,-3.8141,-3.8171,-3.8177,-3.8156,-3.8255,-3.8222,-3.8234,-3.8274,-3.8375,-3.8381,-3.8387,-3.8433,-3.8446,-3.8457,0,0,0,0,0,0,-3.8043,-3.8062,-3.8049,-3.8123,-3.8145,-3.8163,-3.8201,-3.8185,-3.8215,-3.8209,-3.8199,-3.8205,-3.8267,-3.8277,-3.8241,-3.835,-3.831,-3.8318,-3.8341,-3.8353,-3.8363,-3.8358,-3.8197,0,0,0,0,0,-3.8062,-3.8103,-3.8117,-3.8181,-3.8192,-3.8195,-3.8217,-3.8209,-3.8232,-3.8241,-3.8251,-3.8273,-3.8308,-3.8332,-3.8365,-3.844,-3.8442,-3.8473,-3.8483,-3.8491,-3.8498,-3.8534,-3.8547,-3.841,-3.841,-3.841,0,0,-3.8103,-3.8118,-3.8144,-3.8191,-3.8207,-3.8247,-3.8203,-3.8248,-3.8277,-3.8247,-3.8304,-3.8313,-3.8336,-3.8402,-3.8432,-3.8412,-3.8536,-3.8499,-3.8505,-3.8507,-3.8542,-3.8554,-3.8566,-3.8414,-3.8413,-3.8413,0,0,-3.8196,-3.8213,-3.8266,-3.8283,-3.8307,-3.8308,-3.8321,-3.8341,-3.8345,-3.8402,-3.8379,-3.8413,-3.8476,-3.8492,-3.8508,-3.8605,-3.8584,-3.8616,-3.8667,-3.8702,-3.8713,-3.8722,-3.8753,-3.8765,-3.8623,-3.8623,-3.8623,0,-3.8242,-3.8303,-3.8295,-3.8341,-3.836,-3.8335,-3.8387,-3.8404,-3.8438,-3.8451,-3.8429,-3.8504,-3.8518,-3.8587,-3.861,-3.8625,-3.8637,-3.8612,-3.8712,-3.8721,-3.873,-3.8759,-3.8771,-3.8627,-3.8626,-3.8626,-3.8626,0,-3.8357,-3.8399,-3.8438,-3.8471,-3.8496,-3.8545,-3.8543,-3.8568,-3.8558,-3.8561,-3.8617,-3.8633,-3.8668,-3.8684,-3.8676,-3.875,-3.8736,-3.8714,-3.8672,-3.8746,-3.8773,-3.8785,-3.8632,-3.863,-3.8629,-3.8629,0,0,-3.8482,-3.8508,-3.8523,-3.8535,-3.856,-3.8591,-3.8638,-3.8672,-3.8692,-3.8716,-3.8753,-3.8805,-3.8783,-3.8801,-3.8794,-3.8826,-3.8897,-3.8798,-3.8799,-3.8813,-3.8976,-3.8991,-3.9004,-3.8885,-3.8887,-3.8889,-3.8972,0,-3.8573,-3.8654,-3.8647,-3.8723,-3.876,-3.8735,-3.8775,-3.8794,-3.8797,-3.8827,-3.8831,-3.8867,-3.8837,-3.8847,-3.8877,-3.8882,-3.8929,-3.8876,-3.8916,-3.8917,-3.8908,-3.9019,-3.9035,-3.9114,-3.8983,-3.8985,-3.8987,0,-3.8691,-3.8717,-3.8797,-3.8812,-3.8827,-3.8864,-3.8892,-3.8922,-3.8941,-3.8941,-3.8961,-3.8948,-3.8992,-3.8952,-3.9012,-3.8976,-3.8992,-3.8996,-3.8999,-3.9,-3.8955,-3.902,-3.9139,-3.915,-3.9004,-3.9003,-3.9001,0,-3.8769,-3.8826,-3.8879,-3.8892,-3.8912,-3.8937,-3.8947,-3.8964,-3.8983,-3.9008,-3.902,-3.905,-3.9066,-3.9089,-3.9083,-3.9055,-3.9142,-3.9103,-3.9141,-3.9141,-3.9159,-3.9157,-3.9279,-3.9175,-3.9175,-3.9174,-3.9174,0,-3.887,-3.8919,-3.8914,-3.8947,-3.9,-3.8991,-3.9043,-3.9049,-3.9064,-3.9096,-3.9078,-3.9108,-3.91,-3.913,-3.9126,-3.9174,-3.9182,-3.9181,-3.9179,-3.9181,-3.9181,-3.919,-3.9183,-3.9177,-3.9177,-3.9176,-3.9176,0,-3.8966,-3.8966,-3.9022,-3.9036,-3.904,-3.9078,-3.9089,-3.9119,-3.9121,-3.9161,-3.917,-3.9172,-3.9206,-3.9203,-3.9241,-3.9238,-3.9296,-3.9289,-3.9289,-3.9287,-3.9324,-3.932,-3.9454,-3.947,-3.9358,-3.9359,-3.936,0,-3.9029,-3.9066,-3.9083,-3.9103,-3.9114,-3.9147,-3.9166,-3.9158,-3.9179,-3.9202,-3.9228,-3.926,-3.9285,-3.9339,-3.9343,-3.9371,-3.9363,-3.9408,-3.9367,-3.9367,-3.9359,-3.9356,-3.9358,-3.9415,-3.9416,-3.9417,-3.9418,0,-3.914,-3.9137,-3.9166,-3.9193,-3.9216,-3.9238,-3.9258,-3.9275,-3.9269,-3.9293,-3.9327,-3.9346,-3.9384,-3.9414,-3.944,-3.9449,-3.9432,-3.9431,-3.9441,-3.9442,-3.9439,-3.9438,-3.9308,-3.9428,-3.9427,-3.9426,-3.9426,-3.9425,-3.9219,-3.9248,-3.9264,-3.9296,-3.9309,-3.9328,-3.9355,-3.9359,-3.9387,-3.9417,-3.9411,-3.9448,-3.9463,-3.9497,-3.9508,-3.9536,-3.9519,-3.9534,-3.9537,-3.9541,-3.9543,-3.9437,-3.9541,-3.9541,-3.954,-3.954,-3.954,0,-3.9325,-3.9334,-3.9363,-3.939,-3.9414,-3.9396,-3.9416,-3.9437,-3.947,-3.9486,-3.951,-3.9547,-3.9576,-3.9582,-3.961,-3.963,-3.9623,-3.9638,-3.9634,-3.9636,-3.9558,-3.9545,-3.9643,-3.9643,-3.9643,-3.9643,-3.9643,-3.9643,-3.9383,-3.9431,-3.943,-3.9483,-3.9492,-3.9527,-3.954,-3.9555,-3.9568,-3.961,-3.9633,-3.9637,-3.9648,-3.9676,-3.9701,-3.9702,-3.9711,-3.9728,-3.9725,-3.9652,-3.9642,-3.9632,-3.9619,-3.9731,-3.9731,-3.98,-3.9801,-3.9801]}]]